Weather History for San Francisco, CA

Change the Weather History Date:

Friday, November 14, 2014

  Actual Average Record
Temperature  
Mean Temperature 61 °F 56 °F  
Max Temperature 66 °F 63 °F 78 °F (2008)
Min Temperature 56 °F 49 °F 36 °F (1978)
Degree Days  
Heating Degree Days 4 9  
Month to date heating degree days 46 105  
Since 1 July heating degree days 81 392  
Cooling Degree Days 0 0  
Month to date cooling degree days 0 0  
Year to date cooling degree days 497 163  
Growing Degree Days 10 (Base 50)    
Moisture  
Dew Point 56 °F    
Average Humidity 87    
Maximum Humidity 100    
Minimum Humidity 73    
Precipitation  
Precipitation 0.00 in 0.08 in 1.04 in (1968)
Month to date precipitation 0.40 0.94  
Year to date precipitation 8.44 15.18  
Since 1 July precipitation 1.13 2.10  
Sea Level Pressure  
Sea Level Pressure 30.09 in    
Wind  
Wind Speed 10 mph (West)    
Max Wind Speed 18 mph    
Max Gust Speed 22 mph    
Visibility 10 miles    
Events      
T = Trace of Precipitation, MM = Missing Value Source: NWS Daily Summary

Daily Weather History Graph

Daily Weather History Graph

Search for Another Location

Airport:

Trip Planner

Search our weather history database for the weather conditions in past years. The results will help you decide how hot, cold, wet, or windy it might be!

Date:

Astronomy

Nov. 14, 2014 Rise Set
Actual Time 6:48 AM PST 4:59 PM PST
Civil Twilight 6:20 AM PST 5:26 PM PST
Nautical Twilight 5:48 AM PST 5:58 PM PST
Astronomical Twilight 5:17 AM PST 6:29 PM PST
Moon No Moon Rise 12:45 PM PST (11/14)
Length of Visible Light 11h 06m
Length of Day
10h 10m
Waning Gibbous, 48% of the Moon is Illuminated
Nov 14
Waning Gibbous
Nov 22
New
Nov 29
First Quarter
Dec 6
Full
Dec 14
Last Quarter

Hourly Weather History & Observations

Time (PST) Temp. Dew Point Humidity Pressure Visibility Wind Dir Wind Speed Gust Speed Precip Events Conditions
12:16 AM 60.8 °F 57.2 °F 88% 30.08 in 10.0 mi WNW 3.5 mph - N/A   Mostly Cloudy
12:43 AM 60.8 °F 57.2 °F 88% 30.07 in 10.0 mi WNW 4.6 mph - N/A   Scattered Clouds
12:56 AM 60.1 °F 57.0 °F 90% 30.07 in 10.0 mi WNW 4.6 mph - N/A   Scattered Clouds
1:56 AM 59.0 °F 57.0 °F 93% 30.08 in 10.0 mi West 8.1 mph - N/A   Scattered Clouds
2:07 AM 59.0 °F 57.2 °F 94% 30.08 in 10.0 mi West 4.6 mph - N/A   Mostly Cloudy
2:56 AM 60.1 °F 57.0 °F 90% 30.07 in 10.0 mi WNW 8.1 mph - N/A   Mostly Cloudy
3:28 AM 57.2 °F 55.4 °F 94% 30.07 in 10.0 mi West 8.1 mph - N/A   Scattered Clouds
3:56 AM 57.0 °F 55.9 °F 96% 30.07 in 10.0 mi West 4.6 mph - N/A   Partly Cloudy
4:56 AM 57.0 °F 55.9 °F 96% 30.08 in 10.0 mi Calm Calm - N/A   Partly Cloudy
5:56 AM 55.9 °F 55.0 °F 97% 30.09 in 10.0 mi West 3.5 mph - N/A   Partly Cloudy
6:04 AM 55.4 °F 55.4 °F 100% 30.09 in 10.0 mi West 4.6 mph - N/A   Partly Cloudy
6:56 AM 57.0 °F 55.9 °F 96% 30.10 in 10.0 mi West 4.6 mph - N/A   Partly Cloudy
7:56 AM 59.0 °F 57.0 °F 93% 30.11 in 10.0 mi West 5.8 mph - N/A   Partly Cloudy
8:56 AM 61.0 °F 57.0 °F 87% 30.11 in 10.0 mi West 10.4 mph - N/A   Scattered Clouds
9:56 AM 63.0 °F 55.9 °F 78% 30.11 in 10.0 mi WNW 10.4 mph - N/A   Scattered Clouds
10:56 AM 64.0 °F 55.0 °F 73% 30.11 in 10.0 mi West 10.4 mph - N/A   Scattered Clouds
11:56 AM 64.9 °F 55.0 °F 70% 30.10 in 10.0 mi West 11.5 mph - N/A   Scattered Clouds
12:56 PM 64.9 °F 55.0 °F 70% 30.09 in 10.0 mi West 12.7 mph - N/A   Mostly Cloudy
1:56 PM 64.0 °F 55.0 °F 73% 30.08 in 10.0 mi West 12.7 mph - N/A   Mostly Cloudy
2:56 PM 64.9 °F 55.0 °F 70% 30.08 in 10.0 mi WSW 13.8 mph - N/A   Mostly Cloudy
3:56 PM 64.0 °F 55.0 °F 73% 30.06 in 10.0 mi West 12.7 mph - N/A   Mostly Cloudy
4:56 PM 61.0 °F 55.0 °F 81% 30.07 in 9.0 mi West 13.8 mph - N/A   Mostly Cloudy
5:56 PM 61.0 °F 55.0 °F 81% 30.07 in 10.0 mi West 16.1 mph - N/A   Mostly Cloudy
6:56 PM 60.1 °F 55.0 °F 83% 30.08 in 10.0 mi West 11.5 mph - N/A   Mostly Cloudy
7:56 PM 60.1 °F 55.9 °F 86% 30.09 in 10.0 mi West 6.9 mph - N/A   Mostly Cloudy
8:56 PM 60.1 °F 55.9 °F 86% 30.10 in 10.0 mi West 6.9 mph - N/A   Mostly Cloudy
9:56 PM 60.1 °F 55.9 °F 86% 30.10 in 10.0 mi West 11.5 mph - N/A   Scattered Clouds
10:56 PM 60.1 °F 54.0 °F 80% 30.09 in 10.0 mi West 13.8 mph - N/A   Partly Cloudy
11:56 PM 59.0 °F 55.0 °F 87% 30.09 in 10.0 mi West 15.0 mph - N/A   Partly Cloudy